Location: Dana
(41.8364°N, 106.7042°W)
Time: 13:30:56
(UTC+00:00)

Tiros 1 despin weight - Pass Details

Date: 13 May 2026
Orbit: 554 x 591 km, 48.2° (Epoch: 6 June)

Event Time Altitude Azimuth Distance (km) Brightness Sun altitude
Rises 16:58:21 0° 295° (WNW) 2,734 ? 54.7°
Reaches altitude 10° 17:00:41 10° 302° (WNW) 1,836 ? 55.1°
Maximum altitude 17:04:42 45° 16° (NNE) 762 ? 55.7°
Drops below altitude 10° 17:08:44 10° 90° (E) 1,832 ? 56.3°
Sets 17:11:03 0° 97° (E) 2,728 ? 56.7°
